Time,TemperatureF,DewpointF,PressureIn,WindDirection,WindDirectionDegrees,WindSpeedMPH,WindSpeedGustMPH,Humidity,HourlyPrecipIn,Conditions,Clouds,dailyrainin,SolarRadiationWatts/m^2,SoftwareType,DateUTC
2013-02-18 00:02:00,19.0,8.0,-100.00,WNW,291,1.0,3.0,62,0.00,,,0.02,0.000000,,2013-02-18 05:02:00,
2013-02-18 00:11:00,18.0,9.0,-100.00,WNW,298,2.0,3.0,68,0.00,,,0.02,0.000000,,2013-02-18 05:11:00,
2013-02-18 00:32:00,18.0,9.0,-100.00,WNW,298,2.0,3.0,68,0.00,,,0.02,0.000000,,2013-02-18 05:32:00,
2013-02-18 00:42:00,18.0,9.0,-100.00,WNW,298,2.0,3.0,68,0.00,,,0.02,0.000000,,2013-02-18 05:42:00,
2013-02-18 00:52:00,18.0,9.0,-100.00,WNW,298,2.0,3.0,68,0.00,,,0.02,0.000000,,2013-02-18 05:52:00,
2013-02-18 01:02:00,18.0,9.0,-100.00,WNW,298,2.0,3.0,68,0.00,,,0.02,0.000000,,2013-02-18 06:02:00,
2013-02-18 01:11:00,19.0,9.0,-100.00,NW,324,2.0,3.0,65,0.00,,,0.02,0.000000,,2013-02-18 06:11:00,
2013-02-18 01:42:00,19.0,9.0,-100.00,NW,324,2.0,3.0,65,0.00,,,0.02,0.000000,,2013-02-18 06:42:00,
2013-02-18 01:52:00,19.0,9.0,-100.00,NW,324,2.0,3.0,65,0.00,,,0.02,0.000000,,2013-02-18 06:52:00,
2013-02-18 02:02:00,19.0,9.0,-100.00,NW,324,2.0,3.0,65,0.00,,,0.02,0.000000,,2013-02-18 07:02:00,
2013-02-18 02:11:00,19.0,9.0,-100.00,SW,230,1.0,3.0,65,0.00,,,0.02,0.000000,,2013-02-18 07:11:00,
2013-02-18 02:42:00,19.0,9.0,-100.00,SW,230,1.0,3.0,65,0.00,,,0.02,0.000000,,2013-02-18 07:42:00,
2013-02-18 02:52:00,19.0,9.0,-100.00,SW,230,1.0,3.0,65,0.00,,,0.02,0.000000,,2013-02-18 07:52:00,
2013-02-18 03:02:00,19.0,9.0,-100.00,SW,230,1.0,3.0,65,0.00,,,0.02,0.000000,,2013-02-18 08:02:00,
2013-02-18 03:11:00,20.0,9.0,-100.00,NW,318,0.0,2.0,63,0.00,,,0.02,0.000000,,2013-02-18 08:11:00,
2013-02-18 03:33:00,20.0,9.0,-100.00,NW,318,0.0,2.0,63,0.00,,,0.02,0.000000,,2013-02-18 08:33:00,
2013-02-18 03:42:00,20.0,9.0,-100.00,NW,318,0.0,2.0,63,0.00,,,0.02,0.000000,,2013-02-18 08:42:00,
2013-02-18 03:52:00,20.0,9.0,-100.00,NW,318,0.0,2.0,63,0.00,,,0.02,0.000000,,2013-02-18 08:52:00,
2013-02-18 04:03:00,20.0,9.0,-100.00,NW,318,0.0,2.0,63,0.00,,,0.02,0.000000,,2013-02-18 09:03:00,
2013-02-18 04:11:00,20.0,10.0,-100.00,NW,316,1.0,3.0,65,0.00,,,0.02,0.000000,,2013-02-18 09:11:00,
2013-02-18 04:32:00,20.0,10.0,-100.00,NW,316,1.0,3.0,65,0.00,,,0.02,0.000000,,2013-02-18 09:32:00,
2013-02-18 04:42:00,20.0,10.0,-100.00,NW,316,1.0,3.0,65,0.00,,,0.02,0.000000,,2013-02-18 09:42:00,
2013-02-18 04:52:00,20.0,10.0,-100.00,NW,316,1.0,3.0,65,0.00,,,0.02,0.000000,,2013-02-18 09:52:00,
2013-02-18 05:01:00,20.0,10.0,-100.00,NW,316,1.0,3.0,65,0.00,,,0.02,0.000000,,2013-02-18 10:01:00,
2013-02-18 05:11:00,19.0,10.0,-100.00,NW,318,0.0,3.0,66,0.00,,,0.02,0.000000,,2013-02-18 10:11:00,
2013-02-18 05:43:00,19.0,10.0,-100.00,NW,318,0.0,3.0,66,0.00,,,0.02,0.000000,,2013-02-18 10:43:00,
2013-02-18 05:53:00,19.0,10.0,-100.00,NW,318,0.0,3.0,66,0.00,,,0.02,0.000000,,2013-02-18 10:53:00,
2013-02-18 06:02:00,19.0,10.0,-100.00,NW,318,0.0,3.0,66,0.00,,,0.02,0.000000,,2013-02-18 11:02:00,
2013-02-18 06:11:00,19.0,10.0,-100.00,NW,314,2.0,3.0,67,0.00,,,0.02,0.000000,,2013-02-18 11:11:00,
2013-02-18 06:43:00,19.0,10.0,-100.00,NW,314,2.0,3.0,67,0.00,,,0.02,0.000000,,2013-02-18 11:43:00,
2013-02-18 06:53:00,19.0,10.0,-100.00,NW,314,2.0,3.0,67,0.00,,,0.02,0.000000,,2013-02-18 11:53:00,
2013-02-18 07:02:00,19.0,10.0,-100.00,NW,314,2.0,3.0,67,0.00,,,0.02,0.000000,,2013-02-18 12:02:00,
2013-02-18 07:11:00,20.0,11.0,-100.00,NNW,337,1.0,4.0,68,0.00,,,0.02,1.000000,,2013-02-18 12:11:00,
2013-02-18 07:32:00,20.0,11.0,-100.00,NNW,337,1.0,4.0,68,0.00,,,0.02,1.000000,,2013-02-18 12:32:00,
2013-02-18 07:42:00,20.0,11.0,-100.00,NNW,337,1.0,4.0,68,0.00,,,0.02,1.000000,,2013-02-18 12:42:00,
2013-02-18 07:54:00,20.0,11.0,-100.00,NNW,337,1.0,4.0,68,0.00,,,0.02,1.000000,,2013-02-18 12:54:00,
2013-02-18 08:03:00,20.0,11.0,-100.00,NNW,337,1.0,4.0,68,0.00,,,0.02,1.000000,,2013-02-18 13:03:00,
2013-02-18 08:11:00,27.0,16.0,-100.00,NW,326,2.0,4.0,63,0.00,,,-99.99,80.000000,,2013-02-18 13:11:00,
2013-02-18 08:42:00,27.0,16.0,-100.00,NW,326,2.0,4.0,63,0.00,,,-99.99,80.000000,,2013-02-18 13:42:00,
2013-02-18 08:53:00,27.0,16.0,-100.00,NW,326,2.0,4.0,63,0.00,,,-99.99,80.000000,,2013-02-18 13:53:00,
2013-02-18 09:02:00,27.0,16.0,-100.00,NW,326,2.0,4.0,63,0.00,,,-99.99,80.000000,,2013-02-18 14:02:00,
2013-02-18 09:34:00,36.0,18.0,-100.00,WNW,290,2.0,4.0,47,0.00,,,0.02,318.000000,,2013-02-18 14:34:00,
2013-02-18 10:11:00,40.0,15.0,-100.00,NE,55,4.0,7.0,36,-99.99,,,-99.99,525.000000,,2013-02-18 15:11:00,
2013-02-18 10:42:00,40.0,15.0,-100.00,NE,55,4.0,7.0,36,-99.99,,,-99.99,525.000000,,2013-02-18 15:42:00,
2013-02-18 10:53:00,40.0,15.0,-100.00,NE,55,4.0,7.0,36,-99.99,,,-99.99,525.000000,,2013-02-18 15:53:00,
2013-02-18 11:11:00,44.0,16.0,-100.00,East,81,5.0,11.0,32,0.00,,,0.01,705.000000,,2013-02-18 16:11:00,
2013-02-18 11:33:00,44.0,16.0,-100.00,East,81,5.0,11.0,32,0.00,,,0.01,705.000000,,2013-02-18 16:33:00,
2013-02-18 11:43:00,44.0,16.0,-100.00,East,81,5.0,11.0,32,0.00,,,0.01,705.000000,,2013-02-18 16:43:00,
2013-02-18 11:53:00,44.0,16.0,-100.00,East,81,5.0,11.0,32,0.00,,,0.01,705.000000,,2013-02-18 16:53:00,
2013-02-18 12:04:00,44.0,16.0,-100.00,East,81,5.0,11.0,32,0.00,,,0.01,705.000000,,2013-02-18 17:04:00,
2013-02-18 12:11:00,46.0,19.0,-100.00,NE,48,5.0,11.0,33,0.00,,,0.00,805.000000,,2013-02-18 17:11:00,
2013-02-18 12:43:00,46.0,19.0,-100.00,NE,48,5.0,11.0,33,0.00,,,0.00,805.000000,,2013-02-18 17:43:00,
2013-02-18 12:53:00,46.0,19.0,-100.00,NE,48,5.0,11.0,33,0.00,,,0.00,805.000000,,2013-02-18 17:53:00,
2013-02-18 13:03:00,46.0,19.0,-100.00,NE,48,5.0,11.0,33,0.00,,,0.00,805.000000,,2013-02-18 18:03:00,
2013-02-18 13:11:00,48.0,20.0,-100.00,NE,55,4.0,10.0,33,0.00,,,0.00,835.000000,,2013-02-18 18:11:00,
2013-02-18 13:33:00,48.0,20.0,-100.00,NE,55,4.0,10.0,33,0.00,,,0.00,835.000000,,2013-02-18 18:33:00,
2013-02-18 13:43:00,48.0,20.0,-100.00,NE,55,4.0,10.0,33,0.00,,,0.00,835.000000,,2013-02-18 18:43:00,
2013-02-18 13:53:00,48.0,20.0,-100.00,NE,55,4.0,10.0,33,0.00,,,0.00,835.000000,,2013-02-18 18:53:00,
2013-02-18 14:03:00,48.0,20.0,-100.00,NE,55,4.0,10.0,33,0.00,,,0.00,835.000000,,2013-02-18 19:03:00,
2013-02-18 14:11:00,51.0,23.0,-100.00,NW,318,4.0,10.0,33,0.00,,,0.00,810.000000,,2013-02-18 19:11:00,
2013-02-18 14:43:00,51.0,23.0,-100.00,NW,318,4.0,10.0,33,0.00,,,0.00,810.000000,,2013-02-18 19:43:00,
2013-02-18 14:53:00,51.0,23.0,-100.00,NW,318,4.0,10.0,33,0.00,,,0.00,810.000000,,2013-02-18 19:53:00,
2013-02-18 15:03:00,51.0,23.0,-100.00,NW,318,4.0,10.0,33,0.00,,,0.00,810.000000,,2013-02-18 20:03:00,
2013-02-18 16:11:00,50.0,23.0,-100.00,NW,310,5.0,12.0,35,-99.99,,,0.00,509.000000,,2013-02-18 21:11:00,
2013-02-18 16:43:00,50.0,23.0,-100.00,NW,310,5.0,12.0,35,-99.99,,,0.00,509.000000,,2013-02-18 21:43:00,
2013-02-18 16:53:00,50.0,23.0,-100.00,NW,310,5.0,12.0,35,-99.99,,,0.00,509.000000,,2013-02-18 21:53:00,
2013-02-18 17:03:00,50.0,23.0,-100.00,NW,310,5.0,12.0,35,-99.99,,,0.00,509.000000,,2013-02-18 22:03:00,
2013-02-18 18:11:00,45.0,24.0,-100.00,NW,309,5.0,14.0,44,-99.99,,,0.00,46.000000,,2013-02-18 23:11:00,
2013-02-18 18:34:00,45.0,24.0,-100.00,NW,309,5.0,14.0,44,-99.99,,,0.00,46.000000,,2013-02-18 23:34:00,
2013-02-18 18:43:00,45.0,24.0,-100.00,NW,309,5.0,14.0,44,-99.99,,,0.00,46.000000,,2013-02-18 23:43:00,
2013-02-18 18:54:00,45.0,24.0,-100.00,NW,309,5.0,14.0,44,-99.99,,,0.00,46.000000,,2013-02-18 23:54:00,
2013-02-18 19:03:00,45.0,24.0,-100.00,NW,309,5.0,14.0,44,-99.99,,,0.00,46.000000,,2013-02-19 00:03:00,
2013-02-18 19:11:00,44.0,25.0,-100.00,WNW,290,7.0,15.0,47,0.00,,,0.00,1.000000,,2013-02-19 00:11:00,
2013-02-18 19:36:00,44.0,25.0,-100.00,WNW,290,7.0,15.0,47,0.00,,,0.00,1.000000,,2013-02-19 00:36:00,
2013-02-18 19:44:00,44.0,25.0,-100.00,WNW,290,7.0,15.0,47,0.00,,,0.00,1.000000,,2013-02-19 00:44:00,
2013-02-18 19:55:00,44.0,25.0,-100.00,WNW,290,7.0,15.0,47,0.00,,,0.00,1.000000,,2013-02-19 00:55:00,
2013-02-18 20:03:00,44.0,25.0,-100.00,WNW,290,7.0,15.0,47,0.00,,,0.00,1.000000,,2013-02-19 01:03:00,
2013-02-18 20:11:00,44.0,27.0,-100.00,NW,304,6.0,16.0,50,0.00,,,-99.99,0.000000,,2013-02-19 01:11:00,
2013-02-18 20:45:00,44.0,27.0,-100.00,NW,304,6.0,16.0,50,0.00,,,-99.99,0.000000,,2013-02-19 01:45:00,
2013-02-18 20:57:00,44.0,27.0,-100.00,NW,304,6.0,16.0,50,0.00,,,-99.99,0.000000,,2013-02-19 01:57:00,
2013-02-18 21:04:00,44.0,27.0,-100.00,NW,304,6.0,16.0,50,0.00,,,-99.99,0.000000,,2013-02-19 02:04:00,
2013-02-18 21:11:00,43.0,22.0,-100.00,WNW,288,7.0,12.0,43,0.00,,,0.00,0.000000,,2013-02-19 02:11:00,
2013-02-18 21:44:00,43.0,22.0,-100.00,WNW,288,7.0,12.0,43,0.00,,,0.00,0.000000,,2013-02-19 02:44:00,
2013-02-18 21:56:00,43.0,22.0,-100.00,WNW,288,7.0,12.0,43,0.00,,,0.00,0.000000,,2013-02-19 02:56:00,
2013-02-18 22:07:00,43.0,22.0,-100.00,WNW,288,7.0,12.0,43,0.00,,,0.00,0.000000,,2013-02-19 03:07:00,
2013-02-18 22:11:00,42.0,21.0,-100.00,WNW,284,6.0,14.0,42,0.00,,,0.00,0.000000,,2013-02-19 03:11:00,
2013-02-18 22:35:00,42.0,21.0,-100.00,WNW,284,6.0,14.0,42,0.00,,,0.00,0.000000,,2013-02-19 03:35:00,
2013-02-18 22:45:00,42.0,21.0,-100.00,WNW,284,6.0,14.0,42,0.00,,,0.00,0.000000,,2013-02-19 03:45:00,
2013-02-18 22:55:00,42.0,21.0,-100.00,WNW,284,6.0,14.0,42,0.00,,,0.00,0.000000,,2013-02-19 03:55:00,
2013-02-18 23:03:00,42.0,21.0,-100.00,WNW,284,6.0,14.0,42,0.00,,,0.00,0.000000,,2013-02-19 04:03:00,
2013-02-18 23:11:00,41.0,20.0,-100.00,West,280,6.0,14.0,43,0.00,,,0.00,0.000000,,2013-02-19 04:11:00,
2013-02-18 23:34:00,41.0,20.0,-100.00,West,280,6.0,14.0,43,0.00,,,0.00,0.000000,,2013-02-19 04:34:00,
2013-02-18 23:45:00,41.0,20.0,-100.00,West,280,6.0,14.0,43,0.00,,,0.00,0.000000,,2013-02-19 04:45:00,
2013-02-18 23:56:00,41.0,20.0,-100.00,West,280,6.0,14.0,43,0.00,,,0.00,0.000000,,2013-02-19 04:56:00,